Time,TemperatureF,DewpointF,PressureIn,WindDirection,WindDirectionDegrees,WindSpeedMPH,WindSpeedGustMPH,Humidity,HourlyPrecipIn,Conditions,Clouds,dailyrainin,SoftwareType,DateUTC
2013-01-09 00:05:00,31.8,27.8,30.26,SE,133,0.0,0.0,85,0.00,,,0.00,Wunderground v.1.15,2013-01-09 05:05:00,
2013-01-09 00:10:00,32.1,28.1,30.26,SE,133,0.0,0.0,85,0.00,,,0.00,Wunderground v.1.15,2013-01-09 05:10:00,
2013-01-09 00:15:00,32.1,27.8,30.25,SE,133,0.0,0.0,84,0.00,,,0.00,Wunderground v.1.15,2013-01-09 05:15:00,
2013-01-09 00:20:00,32.1,27.8,30.25,SE,133,0.0,0.0,84,0.00,,,0.00,Wunderground v.1.15,2013-01-09 05:20:00,
2013-01-09 00:30:00,32.1,27.8,30.25,SE,133,0.0,0.0,84,0.00,,,0.00,Wunderground v.1.15,2013-01-09 05:30:00,
2013-01-09 00:40:00,32.4,28.4,30.25,SE,133,0.0,0.0,85,0.00,,,0.00,Wunderground v.1.15,2013-01-09 05:40:00,
2013-01-09 00:45:00,32.5,28.2,30.25,SE,133,0.0,0.0,84,0.00,,,0.00,Wunderground v.1.15,2013-01-09 05:45:00,
2013-01-09 00:55:00,32.8,28.5,30.25,SE,133,0.0,0.0,84,0.00,,,0.00,Wunderground v.1.15,2013-01-09 05:55:00,
2013-01-09 01:05:00,33.1,28.8,30.24,SE,133,0.0,0.0,84,0.00,,,0.00,Wunderground v.1.15,2013-01-09 06:05:00,
2013-01-09 01:15:00,32.5,27.9,30.24,SE,133,0.0,0.0,83,0.00,,,0.00,Wunderground v.1.15,2013-01-09 06:15:00,
2013-01-09 01:25:00,32.1,27.8,30.24,SE,133,0.0,0.0,84,0.00,,,0.00,Wunderground v.1.15,2013-01-09 06:25:00,
2013-01-09 01:30:00,32.1,27.8,30.25,SE,133,0.0,0.0,84,0.00,,,0.00,Wunderground v.1.15,2013-01-09 06:30:00,
2013-01-09 01:40:00,32.1,28.1,30.25,SE,133,0.0,0.0,85,0.00,,,0.00,Wunderground v.1.15,2013-01-09 06:40:00,
2013-01-09 01:50:00,32.1,28.1,30.25,SE,133,0.0,0.0,85,0.00,,,0.00,Wunderground v.1.15,2013-01-09 06:50:00,
2013-01-09 02:00:00,31.9,27.9,30.25,SE,133,0.0,0.0,85,0.00,,,0.00,Wunderground v.1.15,2013-01-09 07:00:00,
2013-01-09 02:05:00,31.8,27.8,30.25,SE,133,0.0,0.0,85,0.00,,,0.00,Wunderground v.1.15,2013-01-09 07:05:00,
2013-01-09 02:15:00,31.6,27.6,30.26,SE,133,0.0,0.0,85,0.00,,,0.00,Wunderground v.1.15,2013-01-09 07:15:00,
2013-01-09 02:20:00,31.6,27.6,30.26,SE,133,0.0,0.0,85,0.00,,,0.00,Wunderground v.1.15,2013-01-09 07:20:00,
2013-01-09 02:30:00,31.5,27.8,30.25,SE,133,0.0,0.0,86,0.00,,,0.00,Wunderground v.1.15,2013-01-09 07:30:00,
2013-01-09 02:35:00,31.3,27.6,30.25,SE,133,0.0,0.0,86,0.00,,,0.00,Wunderground v.1.15,2013-01-09 07:35:00,
2013-01-09 02:45:00,31.5,27.8,30.26,SE,133,0.0,0.0,86,0.00,,,0.00,Wunderground v.1.15,2013-01-09 07:45:00,
2013-01-09 02:55:00,31.5,27.8,30.26,SE,133,0.0,0.0,86,0.00,,,0.00,Wunderground v.1.15,2013-01-09 07:55:00,
2013-01-09 03:00:00,31.5,27.8,30.26,SE,133,0.0,0.0,86,0.00,,,0.00,Wunderground v.1.15,2013-01-09 08:00:00,
2013-01-09 03:10:00,31.3,27.6,30.26,SE,133,0.0,0.0,86,0.00,,,0.00,Wunderground v.1.15,2013-01-09 08:10:00,
2013-01-09 03:20:00,31.3,27.9,30.26,SE,133,0.0,0.0,87,0.00,,,0.00,Wunderground v.1.15,2013-01-09 08:20:00,
2013-01-09 03:29:00,31.3,27.9,30.26,SE,133,0.0,0.0,87,0.00,,,0.00,Wunderground v.1.15,2013-01-09 08:29:00,
2013-01-09 03:35:00,31.3,27.9,30.26,SE,133,0.0,0.0,87,0.00,,,0.00,Wunderground v.1.15,2013-01-09 08:35:00,
2013-01-09 03:45:00,31.3,27.9,30.26,SE,133,0.0,0.0,87,0.00,,,0.00,Wunderground v.1.15,2013-01-09 08:45:00,
2013-01-09 03:55:00,31.6,28.2,30.26,SE,133,0.0,0.0,87,0.00,,,0.00,Wunderground v.1.15,2013-01-09 08:55:00,
2013-01-09 04:00:00,31.6,28.2,30.26,SE,133,0.0,0.0,87,0.00,,,0.00,Wunderground v.1.15,2013-01-09 09:00:00,
2013-01-09 04:10:00,31.8,28.4,30.26,SE,133,0.0,0.0,87,0.00,,,0.00,Wunderground v.1.15,2013-01-09 09:10:00,
2013-01-09 04:20:00,31.8,28.4,30.26,SE,133,0.0,0.0,87,0.00,,,0.00,Wunderground v.1.15,2013-01-09 09:20:00,
2013-01-09 04:29:00,31.9,28.5,30.26,SE,133,0.0,0.0,87,0.00,,,0.00,Wunderground v.1.15,2013-01-09 09:29:00,
2013-01-09 04:35:00,32.1,28.7,30.26,SE,133,0.0,0.0,87,0.00,,,0.00,Wunderground v.1.15,2013-01-09 09:35:00,
2013-01-09 04:40:00,32.1,28.7,30.26,SE,133,0.0,0.0,87,0.00,,,0.00,Wunderground v.1.15,2013-01-09 09:40:00,
2013-01-09 04:49:00,32.2,28.8,30.25,SE,133,0.0,0.0,87,0.00,,,0.00,Wunderground v.1.15,2013-01-09 09:49:00,
2013-01-09 04:55:00,32.4,29.0,30.25,SE,133,0.0,0.0,87,0.00,,,0.00,Wunderground v.1.15,2013-01-09 09:55:00,
2013-01-09 05:00:00,32.4,29.0,30.25,SE,133,0.0,0.0,87,0.00,,,0.00,Wunderground v.1.15,2013-01-09 10:00:00,
2013-01-09 05:10:00,32.5,29.1,30.25,SE,133,0.0,0.0,87,0.00,,,0.00,Wunderground v.1.15,2013-01-09 10:10:00,
2013-01-09 05:20:00,32.7,29.3,30.25,SE,133,0.0,0.0,87,0.00,,,0.00,Wunderground v.1.15,2013-01-09 10:20:00,
2013-01-09 05:30:00,33.1,29.4,30.25,SE,133,0.0,0.0,86,0.00,,,0.00,Wunderground v.1.15,2013-01-09 10:30:00,
2013-01-09 05:39:00,33.7,30.0,30.25,SE,133,0.0,0.0,86,0.00,,,0.00,Wunderground v.1.15,2013-01-09 10:39:00,
2013-01-09 05:44:00,33.8,29.8,30.26,SE,133,0.0,0.0,85,0.00,,,0.00,Wunderground v.1.15,2013-01-09 10:44:00,
2013-01-09 05:50:00,34.0,30.0,30.26,SE,133,0.0,0.0,85,0.00,,,0.00,Wunderground v.1.15,2013-01-09 10:50:00,
2013-01-09 06:00:00,34.4,30.4,30.26,SE,133,0.0,0.0,85,0.00,,,0.00,Wunderground v.1.15,2013-01-09 11:00:00,
2013-01-09 06:09:00,34.9,30.8,30.26,SE,133,0.0,0.0,85,0.00,,,0.00,Wunderground v.1.15,2013-01-09 11:09:00,
2013-01-09 06:15:00,35.0,30.7,30.27,SE,133,0.0,0.0,84,0.00,,,0.00,Wunderground v.1.15,2013-01-09 11:15:00,
2013-01-09 06:25:00,35.5,31.1,30.27,SE,133,0.0,0.0,84,0.00,,,0.00,Wunderground v.1.15,2013-01-09 11:25:00,
2013-01-09 06:30:00,35.8,31.1,30.27,SE,133,0.0,0.0,83,0.00,,,0.00,Wunderground v.1.15,2013-01-09 11:30:00,
2013-01-09 06:40:00,36.0,31.3,30.27,SE,133,0.0,0.0,83,0.00,,,0.00,Wunderground v.1.15,2013-01-09 11:40:00,
2013-01-09 06:50:00,36.6,31.9,30.28,SE,133,0.0,0.0,83,0.00,,,0.00,Wunderground v.1.15,2013-01-09 11:50:00,
2013-01-09 07:00:00,37.2,32.2,30.28,SE,133,0.0,0.0,82,0.00,,,0.00,Wunderground v.1.15,2013-01-09 12:00:00,
2013-01-09 07:09:00,37.3,32.3,30.28,SE,133,0.0,0.0,82,0.00,,,0.00,Wunderground v.1.15,2013-01-09 12:09:00,
2013-01-09 07:15:00,37.5,32.5,30.28,SE,133,0.0,0.0,82,0.00,,,0.00,Wunderground v.1.15,2013-01-09 12:15:00,
2013-01-09 07:25:00,37.8,32.8,30.28,SE,133,0.0,0.0,82,0.00,,,0.00,Wunderground v.1.15,2013-01-09 12:25:00,
2013-01-09 07:30:00,38.0,33.0,30.29,SE,133,0.0,0.0,82,0.00,,,0.00,Wunderground v.1.15,2013-01-09 12:30:00,
2013-01-09 07:40:00,38.6,33.3,30.29,SE,133,0.0,0.0,81,0.00,,,0.00,Wunderground v.1.15,2013-01-09 12:40:00,
2013-01-09 07:50:00,38.8,33.2,30.30,SE,133,0.0,0.0,80,0.00,,,0.00,Wunderground v.1.15,2013-01-09 12:50:00,
2013-01-09 07:55:00,38.8,33.2,30.30,SE,133,0.0,0.0,80,0.00,,,0.00,Wunderground v.1.15,2013-01-09 12:55:00,
2013-01-09 08:05:00,39.2,33.5,30.31,SE,133,0.0,0.0,80,0.00,,,0.00,Wunderground v.1.15,2013-01-09 13:05:00,
2013-01-09 08:15:00,39.5,33.8,30.31,SE,133,0.0,0.0,80,0.00,,,0.00,Wunderground v.1.15,2013-01-09 13:15:00,
2013-01-09 08:25:00,39.8,33.8,30.31,SE,133,0.0,0.0,79,0.00,,,0.00,Wunderground v.1.15,2013-01-09 13:25:00,
2013-01-09 08:30:00,39.8,34.1,30.31,SE,133,0.0,0.0,80,0.00,,,0.00,Wunderground v.1.15,2013-01-09 13:30:00,
2013-01-09 08:40:00,39.9,34.2,30.31,SE,133,0.0,0.0,80,0.00,,,0.00,Wunderground v.1.15,2013-01-09 13:40:00,
2013-01-09 08:50:00,39.8,34.1,30.32,SE,133,0.0,0.0,80,0.00,,,0.00,Wunderground v.1.15,2013-01-09 13:50:00,
2013-01-09 08:55:00,39.8,34.4,30.32,SE,133,0.0,0.0,81,0.00,,,0.00,Wunderground v.1.15,2013-01-09 13:55:00,
2013-01-09 09:05:00,39.9,34.9,30.32,SE,133,0.0,0.0,82,0.00,,,0.00,Wunderground v.1.15,2013-01-09 14:05:00,
2013-01-09 09:15:00,40.5,35.1,30.34,SE,133,0.0,0.0,81,0.00,,,0.00,Wunderground v.1.15,2013-01-09 14:15:00,
2013-01-09 09:25:00,41.2,35.8,30.34,SE,133,0.0,0.0,81,0.00,,,0.00,Wunderground v.1.15,2013-01-09 14:25:00,
2013-01-09 09:30:00,41.5,35.8,30.34,SE,133,0.0,0.0,80,0.00,,,0.00,Wunderground v.1.15,2013-01-09 14:30:00,
2013-01-09 09:40:00,41.9,36.2,30.34,SE,133,0.0,0.0,80,0.00,,,0.00,Wunderground v.1.15,2013-01-09 14:40:00,
2013-01-09 09:50:00,42.5,36.4,30.35,SE,133,0.0,0.0,79,0.00,,,0.00,Wunderground v.1.15,2013-01-09 14:50:00,
2013-01-09 10:00:00,43.2,36.8,30.34,SE,133,0.0,0.0,78,0.00,,,0.00,Wunderground v.1.15,2013-01-09 15:00:00,
2013-01-09 10:05:00,43.6,37.2,30.34,SE,133,0.0,1.0,78,0.00,,,0.00,Wunderground v.1.15,2013-01-09 15:05:00,
2013-01-09 10:15:00,46.4,38.9,30.35,SSW,205,2.0,2.0,75,0.00,,,0.00,Wunderground v.1.15,2013-01-09 15:15:00,
2013-01-09 10:25:00,47.0,39.8,30.35,SSW,205,0.0,1.0,76,0.00,,,0.00,Wunderground v.1.15,2013-01-09 15:25:00,
2013-01-09 10:30:00,46.8,40.0,30.36,SSW,205,0.0,1.0,77,0.00,,,0.00,Wunderground v.1.15,2013-01-09 15:30:00,
2013-01-09 10:40:00,47.4,40.9,30.36,SSW,205,0.0,1.0,78,0.00,,,0.00,Wunderground v.1.15,2013-01-09 15:40:00,
2013-01-09 10:49:00,47.3,40.5,30.36,SSW,205,0.0,0.0,77,0.00,,,0.00,Wunderground v.1.15,2013-01-09 15:49:00,
2013-01-09 10:55:00,46.7,40.5,30.36,SSW,205,0.0,0.0,79,0.00,,,0.00,Wunderground v.1.15,2013-01-09 15:55:00,
2013-01-09 11:05:00,46.2,40.4,30.37,SSW,209,1.0,1.0,80,0.00,,,0.00,Wunderground v.1.15,2013-01-09 16:05:00,
2013-01-09 11:10:00,46.0,40.8,30.37,SSW,209,1.0,1.0,82,0.00,,,0.00,Wunderground v.1.15,2013-01-09 16:10:00,
2013-01-09 11:20:00,45.8,41.5,30.36,SSW,209,0.0,0.0,85,0.00,,,0.01,Wunderground v.1.15,2013-01-09 16:20:00,
2013-01-09 11:30:00,46.1,42.4,30.35,SSW,209,1.0,1.0,87,0.00,,,0.01,Wunderground v.1.15,2013-01-09 16:30:00,
2013-01-09 11:35:00,46.4,43.0,30.35,SSE,150,1.0,1.0,88,0.00,,,0.01,Wunderground v.1.15,2013-01-09 16:35:00,
2013-01-09 11:45:00,47.6,44.5,30.36,South,182,1.0,1.0,89,0.00,,,0.01,Wunderground v.1.15,2013-01-09 16:45:00,
2013-01-09 11:50:00,48.0,44.9,30.36,South,184,1.0,1.0,89,0.00,,,0.01,Wunderground v.1.15,2013-01-09 16:50:00,
2013-01-09 12:00:00,48.6,45.2,30.36,West,268,1.0,1.0,88,0.00,,,0.02,Wunderground v.1.15,2013-01-09 17:00:00,
2013-01-09 12:10:00,48.8,45.4,30.36,SW,224,1.0,1.0,88,0.00,,,0.02,Wunderground v.1.15,2013-01-09 17:10:00,
2013-01-09 12:25:00,48.9,45.5,30.35,SW,233,0.0,1.0,88,0.00,,,0.02,Wunderground v.1.15,2013-01-09 17:25:00,
2013-01-09 12:30:00,48.9,45.5,30.34,SW,234,1.0,3.0,88,0.00,,,0.03,Wunderground v.1.15,2013-01-09 17:30:00,
2013-01-09 12:40:00,49.1,46.0,30.34,SSW,212,0.0,3.0,89,0.00,,,0.03,Wunderground v.1.15,2013-01-09 17:40:00,
2013-01-09 12:50:00,49.1,46.0,30.34,SSW,212,1.0,2.0,89,0.00,,,0.03,Wunderground v.1.15,2013-01-09 17:50:00,
2013-01-09 13:00:00,49.2,46.4,30.33,SSW,209,1.0,1.0,90,0.00,,,0.03,Wunderground v.1.15,2013-01-09 18:00:00,
2013-01-09 13:05:00,49.4,46.6,30.33,SSW,203,1.0,1.0,90,0.00,,,0.03,Wunderground v.1.15,2013-01-09 18:05:00,
2013-01-09 13:15:00,49.5,46.7,30.33,SSW,203,0.0,1.0,90,0.00,,,0.03,Wunderground v.1.15,2013-01-09 18:15:00,
2013-01-09 13:20:00,49.6,46.8,30.33,SW,226,1.0,3.0,90,0.00,,,0.03,Wunderground v.1.15,2013-01-09 18:20:00,
2013-01-09 13:30:00,49.9,47.1,30.32,WSW,240,0.0,2.0,90,0.00,,,0.03,Wunderground v.1.15,2013-01-09 18:30:00,
2013-01-09 13:40:00,49.9,46.8,30.32,SW,226,1.0,3.0,89,0.00,,,0.03,Wunderground v.1.15,2013-01-09 18:40:00,
2013-01-09 13:44:00,50.1,47.0,30.32,SW,216,1.0,3.0,89,0.00,,,0.03,Wunderground v.1.15,2013-01-09 18:44:00,
2013-01-09 13:50:00,50.1,47.0,30.32,SW,216,2.0,2.0,89,0.00,,,0.03,Wunderground v.1.15,2013-01-09 18:50:00,
2013-01-09 13:55:00,50.2,47.1,30.32,SW,229,2.0,2.0,89,0.00,,,0.03,Wunderground v.1.15,2013-01-09 18:55:00,
2013-01-09 14:05:00,50.5,47.4,30.32,SSW,208,0.0,2.0,89,0.00,,,0.03,Wunderground v.1.15,2013-01-09 19:05:00,
2013-01-09 14:10:00,50.7,47.3,30.32,West,263,0.0,4.0,88,0.00,,,0.03,Wunderground v.1.15,2013-01-09 19:10:00,
2013-01-09 14:15:00,50.8,47.4,30.33,SW,224,1.0,4.0,88,0.00,,,0.03,Wunderground v.1.15,2013-01-09 19:15:00,
2013-01-09 14:19:00,51.0,47.6,30.33,SSW,203,1.0,1.0,88,0.00,,,0.03,Wunderground v.1.15,2013-01-09 19:19:00,
2013-01-09 14:25:00,51.0,47.3,30.33,SSW,205,1.0,1.0,87,0.00,,,0.03,Wunderground v.1.15,2013-01-09 19:25:00,
2013-01-09 14:30:00,51.1,47.4,30.33,SSW,206,1.0,1.0,87,0.00,,,0.03,Wunderground v.1.15,2013-01-09 19:30:00,
2013-01-09 14:40:00,51.1,47.1,30.33,SSW,198,2.0,2.0,86,0.00,,,0.03,Wunderground v.1.15,2013-01-09 19:40:00,
2013-01-09 14:50:00,51.3,47.3,30.34,SW,215,1.0,2.0,86,0.00,,,0.03,Wunderground v.1.15,2013-01-09 19:50:00,
2013-01-09 15:00:00,52.0,48.3,30.33,SSW,213,0.0,1.0,87,0.00,,,0.03,Wunderground v.1.15,2013-01-09 20:00:00,
2013-01-09 15:10:00,52.6,47.9,30.33,SW,220,1.0,2.0,84,0.00,,,0.03,Wunderground v.1.15,2013-01-09 20:10:00,
2013-01-09 15:20:00,53.1,47.7,30.33,SSE,167,1.0,4.0,82,0.00,,,0.03,Wunderground v.1.15,2013-01-09 20:20:00,
2013-01-09 15:25:00,53.1,47.7,30.33,SSW,213,2.0,4.0,82,0.00,,,0.03,Wunderground v.1.15,2013-01-09 20:25:00,
2013-01-09 15:34:00,53.1,47.4,30.33,SW,236,1.0,3.0,81,0.00,,,0.03,Wunderground v.1.15,2013-01-09 20:34:00,
2013-01-09 15:40:00,53.1,47.4,30.33,SW,224,1.0,1.0,81,0.00,,,0.03,Wunderground v.1.15,2013-01-09 20:40:00,
2013-01-09 15:50:00,52.8,47.1,30.34,WSW,251,1.0,2.0,81,0.00,,,0.03,Wunderground v.1.15,2013-01-09 20:50:00,
2013-01-09 16:00:00,52.6,46.9,30.35,WSW,237,2.0,2.0,81,0.00,,,0.03,Wunderground v.1.15,2013-01-09 21:00:00,
2013-01-09 16:05:00,52.6,46.9,30.35,WSW,237,1.0,2.0,81,0.00,,,0.03,Wunderground v.1.15,2013-01-09 21:05:00,
2013-01-09 16:15:00,52.5,46.8,30.35,WSW,253,2.0,2.0,81,0.00,,,0.03,Wunderground v.1.15,2013-01-09 21:15:00,
2013-01-09 16:20:00,52.5,46.8,30.35,WSW,256,2.0,2.0,81,0.00,,,0.03,Wunderground v.1.15,2013-01-09 21:20:00,
2013-01-09 16:30:00,52.5,46.8,30.36,WSW,248,1.0,3.0,81,0.00,,,0.03,Wunderground v.1.15,2013-01-09 21:30:00,
2013-01-09 16:35:00,52.5,46.8,30.36,WSW,248,1.0,3.0,81,0.00,,,0.03,Wunderground v.1.15,2013-01-09 21:35:00,
2013-01-09 16:45:00,52.3,46.6,30.36,WSW,251,1.0,2.0,81,0.00,,,0.03,Wunderground v.1.15,2013-01-09 21:45:00,
2013-01-09 16:55:00,52.0,46.3,30.36,WSW,251,0.0,1.0,81,0.00,,,0.03,Wunderground v.1.15,2013-01-09 21:55:00,
2013-01-09 17:00:00,51.7,46.4,30.37,WSW,251,0.0,0.0,82,0.00,,,0.03,Wunderground v.1.15,2013-01-09 22:00:00,
2013-01-09 17:10:00,51.3,46.0,30.37,WSW,251,0.0,0.0,82,0.00,,,0.03,Wunderground v.1.15,2013-01-09 22:10:00,
2013-01-09 17:20:00,50.8,45.8,30.38,WSW,251,0.0,0.0,83,0.00,,,0.03,Wunderground v.1.15,2013-01-09 22:20:00,
2013-01-09 17:30:00,50.1,45.5,30.38,WSW,251,0.0,0.0,84,0.00,,,0.03,Wunderground v.1.15,2013-01-09 22:30:00,
2013-01-09 17:35:00,49.6,45.3,30.38,WSW,251,0.0,0.0,85,0.00,,,0.03,Wunderground v.1.15,2013-01-09 22:35:00,
2013-01-09 17:45:00,49.2,45.5,30.39,WSW,251,0.0,0.0,87,0.00,,,0.03,Wunderground v.1.15,2013-01-09 22:45:00,
2013-01-09 17:50:00,48.6,44.6,30.39,WSW,251,0.0,0.0,86,0.00,,,0.03,Wunderground v.1.15,2013-01-09 22:50:00,
2013-01-09 18:00:00,47.7,44.3,30.39,WSW,251,0.0,0.0,88,0.00,,,0.03,Wunderground v.1.15,2013-01-09 23:00:00,
2013-01-09 18:10:00,47.0,43.9,30.39,WSW,251,0.0,0.0,89,0.00,,,0.03,Wunderground v.1.15,2013-01-09 23:10:00,
2013-01-09 18:20:00,46.0,43.2,30.39,WSW,251,0.0,0.0,90,0.00,,,0.03,Wunderground v.1.15,2013-01-09 23:20:00,
2013-01-09 18:25:00,45.5,43.0,30.39,WSW,251,0.0,0.0,91,0.00,,,0.03,Wunderground v.1.15,2013-01-09 23:25:00,
2013-01-09 18:35:00,45.1,42.9,30.40,WSW,251,0.0,0.0,92,0.00,,,0.03,Wunderground v.1.15,2013-01-09 23:35:00,
2013-01-09 18:40:00,44.9,42.7,30.40,WSW,251,0.0,0.0,92,0.00,,,0.03,Wunderground v.1.15,2013-01-09 23:40:00,
2013-01-09 18:50:00,44.5,42.6,30.41,WSW,251,0.0,0.0,93,0.00,,,0.03,Wunderground v.1.15,2013-01-09 23:50:00,
2013-01-09 19:00:00,44.1,42.5,30.42,WSW,251,0.0,0.0,94,0.00,,,0.03,Wunderground v.1.15,2013-01-10 00:00:00,
2013-01-09 19:10:00,43.9,42.3,30.42,WSW,251,0.0,0.0,94,0.00,,,0.03,Wunderground v.1.15,2013-01-10 00:10:00,
2013-01-09 19:19:00,43.3,41.7,30.42,WSW,251,0.0,0.0,94,0.00,,,0.03,Wunderground v.1.15,2013-01-10 00:19:00,
2013-01-09 19:25:00,43.1,41.5,30.42,WSW,251,0.0,0.0,94,0.00,,,0.03,Wunderground v.1.15,2013-01-10 00:25:00,
2013-01-09 19:35:00,42.9,41.6,30.42,WSW,251,0.0,0.0,95,0.00,,,0.03,Wunderground v.1.15,2013-01-10 00:35:00,
2013-01-09 19:44:00,42.2,40.6,30.44,WSW,251,0.0,0.0,94,0.00,,,0.03,Wunderground v.1.15,2013-01-10 00:44:00,
2013-01-09 19:50:00,41.8,40.5,30.44,WSW,251,0.0,0.0,95,0.00,,,0.03,Wunderground v.1.15,2013-01-10 00:50:00,
2013-01-09 20:00:00,41.6,40.3,30.44,WSW,251,0.0,0.0,95,0.00,,,0.03,Wunderground v.1.15,2013-01-10 01:00:00,
2013-01-09 20:09:00,41.3,40.0,30.44,WSW,251,0.0,0.0,95,0.00,,,0.03,Wunderground v.1.15,2013-01-10 01:09:00,
2013-01-09 20:14:00,41.1,39.8,30.45,WSW,251,0.0,0.0,95,0.00,,,0.03,Wunderground v.1.15,2013-01-10 01:14:00,
2013-01-09 20:20:00,40.9,39.6,30.45,WSW,251,0.0,0.0,95,0.00,,,0.03,Wunderground v.1.15,2013-01-10 01:20:00,
2013-01-09 20:30:00,40.9,39.8,30.46,WSW,251,0.0,0.0,96,0.00,,,0.03,Wunderground v.1.15,2013-01-10 01:30:00,
2013-01-09 20:35:00,40.8,39.7,30.46,WSW,251,0.0,0.0,96,0.00,,,0.03,Wunderground v.1.15,2013-01-10 01:35:00,
2013-01-09 20:45:00,40.5,39.4,30.47,WSW,251,0.0,0.0,96,0.00,,,0.03,Wunderground v.1.15,2013-01-10 01:45:00,
2013-01-09 20:55:00,40.3,39.3,30.47,WSW,251,0.0,0.0,96,0.00,,,0.03,Wunderground v.1.15,2013-01-10 01:55:00,
2013-01-09 21:00:00,40.3,39.3,30.47,WSW,251,0.0,0.0,96,0.00,,,0.03,Wunderground v.1.15,2013-01-10 02:00:00,
2013-01-09 21:10:00,40.2,39.2,30.47,WSW,251,0.0,0.0,96,0.00,,,0.03,Wunderground v.1.15,2013-01-10 02:10:00,
2013-01-09 21:20:00,40.1,39.1,30.47,WSW,251,0.0,0.0,96,0.00,,,0.03,Wunderground v.1.15,2013-01-10 02:20:00,
2013-01-09 21:30:00,39.9,38.9,30.48,WSW,251,0.0,0.0,96,0.00,,,0.03,Wunderground v.1.15,2013-01-10 02:30:00,
2013-01-09 21:35:00,39.8,38.8,30.48,WSW,251,0.0,0.0,96,0.00,,,0.03,Wunderground v.1.15,2013-01-10 02:35:00,
2013-01-09 21:45:00,39.5,38.5,30.48,WSW,251,0.0,0.0,96,0.00,,,0.03,Wunderground v.1.15,2013-01-10 02:45:00,
2013-01-09 21:50:00,39.3,38.5,30.48,WSW,251,0.0,0.0,97,0.00,,,0.03,Wunderground v.1.15,2013-01-10 02:50:00,
2013-01-09 22:00:00,39.2,38.4,30.48,WSW,251,0.0,0.0,97,0.00,,,0.03,Wunderground v.1.15,2013-01-10 03:00:00,
2013-01-09 22:10:00,38.9,38.1,30.48,WSW,251,0.0,0.0,97,0.00,,,0.03,Wunderground v.1.15,2013-01-10 03:10:00,
2013-01-09 22:20:00,38.6,37.8,30.49,WSW,251,0.0,0.0,97,0.00,,,0.03,Wunderground v.1.15,2013-01-10 03:20:00,
2013-01-09 22:30:00,38.2,37.4,30.49,WSW,251,0.0,0.0,97,0.00,,,0.03,Wunderground v.1.15,2013-01-10 03:30:00,
2013-01-09 22:35:00,37.8,36.8,30.49,WSW,251,0.0,0.0,96,0.00,,,0.03,Wunderground v.1.15,2013-01-10 03:35:00,
2013-01-09 22:45:00,37.6,36.8,30.49,WSW,251,0.0,0.0,97,0.00,,,0.03,Wunderground v.1.15,2013-01-10 03:45:00,
2013-01-09 22:50:00,37.6,36.8,30.49,WSW,251,0.0,0.0,97,0.00,,,0.03,Wunderground v.1.15,2013-01-10 03:50:00,
2013-01-09 23:00:00,37.6,36.8,30.49,WSW,251,0.0,0.0,97,0.00,,,0.03,Wunderground v.1.15,2013-01-10 04:00:00,
2013-01-09 23:10:00,37.2,36.4,30.49,WSW,251,0.0,0.0,97,0.00,,,0.03,Wunderground v.1.15,2013-01-10 04:10:00,
2013-01-09 23:20:00,36.8,36.0,30.49,WSW,251,0.0,0.0,97,0.00,,,0.03,Wunderground v.1.15,2013-01-10 04:20:00,
2013-01-09 23:30:00,36.9,36.1,30.49,WSW,251,0.0,0.0,97,0.00,,,0.03,Wunderground v.1.15,2013-01-10 04:30:00,
2013-01-09 23:35:00,36.8,36.0,30.49,WSW,251,0.0,0.0,97,0.00,,,0.03,Wunderground v.1.15,2013-01-10 04:35:00,
2013-01-09 23:40:00,36.8,36.0,30.49,WSW,251,0.0,0.0,97,0.00,,,0.03,Wunderground v.1.15,2013-01-10 04:40:00,
2013-01-09 23:50:00,36.8,36.3,30.49,WSW,251,0.0,0.0,98,0.00,,,0.03,Wunderground v.1.15,2013-01-10 04:50:00,